Tracking 35331 objects as of 16-Sep-2026
HD Live streaming from Space Station
objects crossing your sky now

FREGAT DEB

Track FREGAT DEB now!
10-day predictions


NORAD ID: 45976
Int'l Code: 2011-037GH
Launch date: July 18, 2011
Source: Commonwealth of Independent States (former USSR) (CIS)
Launch site: TYURATAM MISSILE AND SPACE COMPLEX (TTMTR)

Note: This is SATELLITE DEBRIS
Your satellite tracking list
Your tracking list is empty




NASA's NSSDC Master Catalog

Two Line Element Set (TLE):
1 45976U 11037GH  21193.88709625  .11641727  00000-0  71189+0 0  9998
2 45976  51.0528  54.5067 1343483 163.1362 201.9079 12.66629810 22338
Source of the keplerian elements: AFSPC